Home > Weather > Annapolis County > Past weeks

Flag for Canada Weather for the Past 2 Weeks in Annapolis County, Nova Scotia, Canada

Now
44 °F

Quite cool.


Feels Like: 41 °F
Forecast: 42 / 51 °F
Wind: 6 mph from Northeast

Location: Kejimkujik 1

Current Time: May 6, 2016 at 5:04:32 AM

Latest Report: May 6, 2016 at 4:00 AM


Visibility: N/A

Pressure: 29.55 "Hg

Humidity: 97%

Dew Point: 43 °F

Location of Annapolis CountyLocation

Historic Weather in Annapolis County — Graph

°F

Annapolis County Temperature Yesterday

Maximum temperature yesterday: 49 °F (at 4:00 PM)
Minimum temperature yesterday: 39 °F (at 8:00 AM)
Average temperature yesterday: 43 °F

High & Low Weather Summary for the Past Weeks

 TemperatureHumidityPressure
High75 °F (Apr 22, 3:00 PM)100% (Apr 26, 9:00 PM)30.28 "Hg (Apr 26, 9:00 PM)
Low22 °F (Apr 29, 5:00 AM)14% (Apr 30, 7:00 PM)29.55 "Hg (May 6, 4:00 AM)
Average44 °F64%29.92 "Hg
* Reported Apr 21 4:00 AM — May 6 4:00 AM, Annapolis County, Weather by CustomWeather, © 2016

Note: Actual official high and low records may vary slightly from our data, if they occured in-between our weather recording intervals... More about our weather records

Advertising

Annapolis County Weather History for the Previous 24 Hours

Scroll right to see more
 ConditionsComfort  
Time TempWeatherWind HumidityBarometerVisibility
4:00 AM
Fri, May 6
44 °FQuite cool.6 mph97%29.55 "HgN/A
3:00 AM44 °FQuite cool.7 mph97%29.58 "HgN/A
2:00 AM44 °FQuite cool.7 mph96%29.59 "HgN/A
1:00 AM44 °FQuite cool.6 mph96%29.63 "HgN/A
12:00 AM43 °FQuite cool.7 mph97%29.64 "HgN/A
11:00 PM
Thu, May 5
43 °FQuite cool.5 mph95%29.68 "HgN/A
10:00 PM43 °FQuite cool.8 mph96%29.70 "HgN/A
9:00 PM44 °FQuite cool.7 mph95%29.73 "HgN/A
8:00 PM44 °FQuite cool.6 mph94%29.74 "HgN/A
7:00 PM46 °FCool.5 mph93%29.75 "HgN/A
6:00 PM47 °FCool.6 mph91%29.77 "HgN/A
5:00 PM49 °FCool.5 mph88%29.77 "HgN/A
4:00 PM49 °FCool.5 mph87%29.77 "HgN/A
3:00 PM49 °FCool.7 mph87%29.77 "HgN/A
2:00 PM47 °FCool.6 mph90%29.77 "HgN/A
1:00 PM46 °FCool.6 mph92%29.78 "HgN/A
12:00 PM44 °FQuite cool.8 mph94%29.78 "HgN/A
11:00 AM42 °FQuite cool.9 mph96%29.78 "HgN/A
10:00 AM41 °FQuite cool.7 mph96%29.78 "HgN/A
9:00 AM40 °FQuite cool.9 mph97%29.78 "HgN/A
8:00 AM39 °FChilly.9 mph97%29.78 "HgN/A
7:00 AM40 °FChilly.10 mph96%29.80 "HgN/A
6:00 AM40 °FChilly.9 mph96%29.79 "HgN/A
5:00 AM40 °FChilly.6 mph96%29.82 "HgN/A
Weather by CustomWeather, © 2016

See weather overviewHow to use our weather pages